Location: G�migny
(47.9646°N, 1.6950°E)
Time: 12:29:15
(UTC+00:00)

Cosmos 1802 Rocket - Pass Details

Date: 23 October 2019
Orbit: 954 x 1011 km, 82.9° (Epoch: 21 November)

Event Time Altitude Azimuth Distance (km) Brightness Sun altitude
Rises 18:21:52 0° 353° (N) 3,758 7.2 -15.9°
Reaches altitude 10° 18:24:30 10° 358° (N) 2,802 6.4 -16.3°
Maximum altitude 18:30:49 55° 76° (ENE) 1,199 4.1 -17.4°
Drops below altitude 10° 18:37:02 10° 153° (SSE) 2,761 6.1 -18.4°
Sets 18:39:37 0° 158° (SSE) 3,698 6.8 -18.9°
